TimeCDT,TemperatureF,Dew PointF,Humidity,Sea Level PressureIn,VisibilityMPH,Wind Direction,Wind SpeedMPH,Gust SpeedMPH,PrecipitationIn,Events,Conditions,WindDirDegrees,DateUTC
12:18 AM,44.6,44.6,100,30.13,1.8,Calm,Calm,-,N/A,,Clear,0,2012-10-09 05:18:00
12:32 AM,44.6,42.8,93,30.13,4.0,NW,3.5,-,N/A,,Clear,320,2012-10-09 05:32:00
12:53 AM,45.0,44.1,97,30.14,7.0,Calm,Calm,-,N/A,,Clear,0,2012-10-09 05:53:00
1:53 AM,45.0,43.0,93,30.13,4.0,Calm,Calm,-,N/A,,Clear,0,2012-10-09 06:53:00
3:53 AM,43.0,42.1,97,30.12,-9999.0,Calm,Calm,-,N/A,,Clear,0,2012-10-09 08:53:00
4:53 AM,43.0,41.0,93,30.13,-9999.0,Calm,Calm,-,N/A,,Clear,0,2012-10-09 09:53:00
5:53 AM,43.0,41.0,93,30.13,10.0,Calm,Calm,-,N/A,,Clear,0,2012-10-09 10:53:00
6:53 AM,41.0,39.9,96,30.14,10.0,Calm,Calm,-,N/A,,Clear,0,2012-10-09 11:53:00
7:53 AM,45.0,43.0,93,30.15,10.0,Calm,Calm,-,N/A,,Clear,0,2012-10-09 12:53:00
8:53 AM,52.0,48.0,86,30.15,10.0,ESE,5.8,-,N/A,,Clear,110,2012-10-09 13:53:00
9:53 AM,59.0,50.0,72,30.16,10.0,SE,6.9,-,N/A,,Clear,140,2012-10-09 14:53:00
10:53 AM,64.9,51.1,61,30.15,10.0,ESE,6.9,-,N/A,,Clear,120,2012-10-09 15:53:00
11:53 AM,69.1,53.1,57,30.13,10.0,Variable,5.8,-,N/A,,Clear,0,2012-10-09 16:53:00
12:53 PM,72.0,54.0,53,30.09,10.0,ESE,5.8,-,N/A,,Clear,120,2012-10-09 17:53:00
1:53 PM,75.0,55.0,50,30.06,10.0,Variable,3.5,-,N/A,,Clear,0,2012-10-09 18:53:00
2:53 PM,77.0,55.9,48,30.03,10.0,SW,3.5,-,N/A,,Clear,220,2012-10-09 19:53:00
3:53 PM,78.1,55.9,46,30.00,10.0,East,4.6,-,N/A,,Clear,90,2012-10-09 20:53:00
4:53 PM,78.1,57.9,50,29.98,10.0,SSE,6.9,-,N/A,,Clear,150,2012-10-09 21:53:00
5:53 PM,75.0,57.9,55,29.98,10.0,SE,9.2,-,N/A,,Clear,140,2012-10-09 22:53:00
6:53 PM,70.0,59.0,68,29.98,10.0,SSE,4.6,-,N/A,,Clear,160,2012-10-09 23:53:00
7:53 PM,64.9,59.0,81,29.99,10.0,SSE,4.6,-,N/A,,Clear,150,2012-10-10 00:53:00
8:53 PM,64.0,59.0,84,30.01,10.0,SSE,4.6,-,N/A,,Clear,150,2012-10-10 01:53:00
9:53 PM,63.0,59.0,87,30.03,9.0,SSE,4.6,-,N/A,,Clear,150,2012-10-10 02:53:00
10:53 PM,64.0,59.0,84,30.04,10.0,South,4.6,-,N/A,,Clear,170,2012-10-10 03:53:00
11:53 PM,62.1,57.9,86,30.05,10.0,SE,4.6,-,N/A,,Clear,140,2012-10-10 04:53:00